ICEYE-X16 (51008 NORAD) Tracking and Keplerian Element Data

This shows tracking and keplerian element data for the satellite.

Feedback or suggestion? Click here.




ElementValue
Catalog51008
NameICEYE-X16
Epoch Orbit13347
Epoch Day160.1569903
Epoch Year2024
RAAN233.7099
Inclination97.3895
Eccentricity0.0001352
Argument of Perigee84.6952
Mean Anonmoly275.4456
Mean Motion15.53137976
Decay Rate0.00111856
L11 51008U 22002AA 24160.15699030 .00111856 00000+0 17643-2 0 9990
L22 51008 97.3895 233.7099 0001352 84.6952 275.4456 15.53137976133473



Live tracking and technical data element details for ICEYE-X16 (NORAD 51008). ICEYE-X16 can be tracked NOW for your location showing map with azimuth and elevation plus other details from your city location.







IsCatalogInMostPopularTable: catalog: 51008, numindb: 87
Update: records affected: 1



GetName: 51008 ICEYE-X16

Hit Count: updated at: Wed, 18 Jun 2025 04:43:24 GMT